Regional Weather Roundup
Issued by NWS

Home | Current Version | Previous Version | Text Only | Print | Product List | Glossary Off
Versions: 1 2 3 4 5 6 7 8 9 10 11 12 13 14 15 16 17 18 19 20 21 22 23 24 25 26 27 28 29 30 31 32 33 34 35 36 37 38 39 40 41 42 43 44 45 46 47 48 49 50

000
ASUS43 KLOT 280103
RWRIL

ILLINOIS REGIONAL WEATHER ROUNDUP
NATIONAL WEATHER SERVICE CHICAGO/ROMEOVILLE IL
800 PM CDT MON MAR 27 2017

NOTE: "FAIR" INDICATES FEW OR NO CLOUDS BELOW 12,000 FEET WITH NO
SIGNIFICANT WEATHER AND/OR OBSTRUCTIONS TO VISIBILITY.

* THESE STATIONS ARE NOT UNDER NWS QUALITY CONTROL. THEY ALSO MAY NOT
  REPORT WEATHER SUCH AS PRECIPITATION OR FOG.

ILZ001-002-007-009-015-016-024-280200-
NORTHWEST ILLINOIS

CITY           SKY/WX    TMP DP  RH WIND       PRES   REMARKS
MOLINE         CLOUDY    51  45  79 N6        29.93R
STERLING*      CLOUDY    50  47  89 N5        29.94R
SAVANNA*       CLOUDY    49  45  85 CALM      29.94R
$$

ILZ003-004-008-010-011-017-018-280200-
NORTH CENTRAL ILLINOIS

CITY           SKY/WX    TMP DP  RH WIND       PRES   REMARKS
ROCKFORD       CLOUDY    50  44  80 NE9       29.95R
FREEPORT*      CLOUDY    48  44  86 N6        29.95R
ROCHELLE*      CLOUDY    50  46  87 N7        29.93R
DE KALB*       CLOUDY    47  45  90 NE8       29.94R
$$

ILZ005-006-012>014-019>023-280200-
NORTHEAST ILLINOIS

CITY           SKY/WX    TMP DP  RH WIND       PRES   REMARKS
CHICAGO-OHARE  CLOUDY    44  38  79 NE9       29.94R
CHICAGO-MIDWAY CLOUDY    44  39  82 NE10      29.94R
AURORA         CLOUDY    49  45  86 NE8       29.93R
LANSING*       CLOUDY    41  40  97 NE9       29.94R
JOLIET*        CLOUDY    48  46  90 NE8       29.93R FOG
WAUKEGAN       CLOUDY    38  37  97 NE5       29.95R WCI  34
DUPAGE AIRPORT CLOUDY    45  43  93 NE8       29.93R
WHEELING       CLOUDY    41  39  93 NE8       29.96R
MORRIS*        CLOUDY    50  46  88 NE3       29.91R FOG
NORTHERLY ISL    N/A     40  38  93 N10         N/A
$$

LMZ740>746-280200-
SOUTHERN LAKE MICHIGAN

STATION/POSITION SKY/WX   TEMP    WIND        PRES    VSBY  WAVE
                          AIR SEA DIR/SP/G                  HT/PER
                          (F)     (DEG/KT/KT) (MB)    (MI)  (FT/S)
HARRISON CRIB              39     360/  8/  9   N/A
BURNHAM HARBOR             39     360/  7/ 10   N/A
CALUMET HARBOR             39     340/  7/  9 1013.5R
BURNS HARBOR               40      50/  9/ 11 1014.2R
MICHIGAN CITY              39      30/ 12/ 14   N/A
$$

ILZ025>027-034>036-040-047-049-050-058-095>099-280200-
WEST-CENTRAL ILLINOIS

CITY           SKY/WX    TMP DP  RH WIND       PRES   REMARKS
QUINCY         CLOUDY    52  49  89 N13       29.92R
GALESBURG*     CLOUDY    50  48  92 N6        29.92R
MACOMB*        CLOUDY    51  50  93 N8        29.95R
JACKSONVILLE*  CLOUDY    54  51  90 N9        29.90R
PITTSFIELD*    CLOUDY    55  53  92 N6        29.91S
$$

ILZ028>032-037-038-041>044-048-051>054-059>061-280200-
CENTRAL ILLINOIS

CITY           SKY/WX    TMP DP  RH WIND       PRES   REMARKS
PONTIAC        CLOUDY    54  53  98 N9        29.91R
BLOOMINGTON    CLOUDY    53  51  93 N9        29.89S
DECATUR        CLOUDY    55  53  93 N13       29.86R
PEORIA         CLOUDY    53  50  89 N5        29.91R
SPRINGFIELD    CLOUDY    56  53  90 N10       29.89R
TAYLORVILLE    NOT AVBL
$$

ILZ033-039-045-046-055>057-062-063-280200-
EAST-CENTRAL ILLINOIS

CITY           SKY/WX    TMP DP  RH WIND       PRES   REMARKS
CHAMPAIGN      LGT RAIN  56  53  90 N10       29.86R FOG
RANTOUL*       CLOUDY    58  55  89 N12       29.87R
MATTOON        LGT RAIN  54  54 100 NE10      29.82R FOG
PARIS*         CLOUDY    55  54  95 N5        29.84R
$$

ILZ079-100>102-280200-
SOUTHWEST ILLINOIS

CITY           SKY/WX    TMP DP  RH WIND       PRES   REMARKS
ALTON          CLOUDY    55  52  88 NW6       29.88R
BELLEVILLE     CLOUDY    56  56 100 NW5       29.86R
CAHOKIA*       CLOUDY    57  52  83 NW8       29.88R
SPARTA*        CLOUDY    55  52  90 NW5       29.88R
$$

ILZ064>066-069>071-074>076-080>082-084>086-088>090-092>094-280200-
SOUTH-CENTRAL ILLINOIS

CITY           SKY/WX    TMP DP  RH WIND       PRES   REMARKS
CARBONDALE     MOCLDY    57  54  89 NW9       29.86R
CAIRO*         CLEAR     58  56  95 CALM      29.84R
EFFINGHAM*     CLOUDY    57  56  98 CALM      29.83R
MARION         PTCLDY    61  55  82 NW6       29.85R
MT. VERNON     CLOUDY    57  52  83 W7        29.84R
CENTRALIA*     CLOUDY    57  55  91 W7        29.83R
SALEM*         CLOUDY    57  54  88 W6        29.83R
$$

ILZ067-068-072-073-078-083-087-091-280200-
SOUTHEAST ILLINOIS

CITY           SKY/WX    TMP DP  RH WIND       PRES   REMARKS
LAWRENCEVILLE  CLOUDY    58  56  93 S6        29.81R
FLORA*         MOCLDY    58  53  83 W6        29.83R
FAIRFIELD*     CLOUDY    59  54  84 W6        29.82R
HARRISBURG*    CLOUDY    60  56  84 SW5       29.84R
ROBINSON*      LGT RAIN  58  56  95 E3        29.81S
CARMI*         CLOUDY    59  57  94 S6        29.81R
$$

ABBREVIATIONS USED IN REMARKS
   TC - TEMPERATURE IN CELSIUS
  WCI - WIND CHILL INDEX
   HX - HEAT INDEX
  VSB - VISIBILITY
$$




USA.gov is the U.S. government's official web portal to all federal, state and local government web resources and services.